Regional Weather Roundup
Issued by NWS

Home | Current Version | Previous Version | Graphics & Text | Print | Product List | Glossary Off
Versions: 1 2 3 4 5 6 7 8 9 10 11 12 13 14 15 16 17 18 19 20 21 22 23 24 25 26 27 28 29 30 31 32 33 34 35 36 37 38 39 40 41 42 43 44 45 46 47 48 49 50

000
ASUS43 KMKX 292121
RWRWI

WISCONSIN REGIONAL WEATHER ROUNDUP
NATIONAL WEATHER SERVICE MILWAUKEE/SULLIVAN WI
400 PM CDT MON AUG 29 2016

NOTE: "FAIR" INDICATES FEW OR NO CLOUDS BELOW 12,000 FEET WITH NO
SIGNIFICANT WEATHER AND/OR OBSTRUCTIONS TO VISIBILITY.

WIZ001-002-006>008-014>016-023>028-292200-
NORTHWEST WISCONSIN

CITY           SKY/WX    TMP DP  RH WIND       PRES   REMARKS
SUPERIOR ARPT  SUNNY     82  68  63 W9        30.11F HX  85
ASHLAND        SUNNY     84  67  56 W3        30.12F HX  86
HAYWARD        SUNNY     83  67  58 S13G18    30.15S HX  85
SIREN          SUNNY     84  68  57 SW10      30.14S HX  87
CUMBERLAND     MOSUNNY   79  64  61 SW10      30.16S HX  81
RICE LAKE      MOSUNNY   81  67  63 S12       30.17F HX  83
CHETEK         NOT AVBL
LADYSMITH      PTSUNNY   80  69  67 S10       30.19R HX  83
EAU CLAIRE     MOSUNNY   83  70  64 S14       30.14F HX  87
MENOMONIE      MOSUNNY   83  70  64 S9        30.16R HX  87
NEW RICHMOND   PTSUNNY   82  69  64 SW12      30.16S HX  85
OSCEOLA        CLOUDY    82  70  66 S7        30.17F HX  85
$$

WIZ003>005-009-010-017-018-292200-
NORTH CENTRAL WISCONSIN

CITY           SKY/WX    TMP DP  RH WIND       PRES   REMARKS
MANITOWISH WTR NOT AVBL
ARBOR VITAE    SUNNY     82  70  66 SW7       30.17F HX  86
WOODRUFF       SUNNY     82  70  66 SW7       30.17F HX  86
RHINELANDER    MOSUNNY   81  70  69 SW9       30.19F HX  84
EAGLE RIVER    SUNNY     82  66  57 W9        30.18S HX  84
LAND O LAKES   SUNNY     84  64  51 W6        30.18F HX  85
PHILLIPS       MOSUNNY   82  70  67 SW10      30.16S HX  85
TOMAHAWK       MOSUNNY   79  69  73 CALM      30.19S HX  81
MEDFORD        MOSUNNY   80  72  76 SW9       30.19F HX  84
MERRILL        MOSUNNY   81  71  71 SW10      30.19S HX  85
$$

WIZ029-030-035-036-043>047-292200-
CENTRAL WISCONSIN

CITY           SKY/WX    TMP DP  RH WIND       PRES   REMARKS
WAUSAU         SUNNY     81  68  64 S12       30.17F HX  84
MOSINEE        MOSUNNY   81  72  74 SW12      30.19  HX  84
MARSHFIELD     MOSUNNY   84  69  60 SW13      30.18F HX  88
STEVENS POINT  MOSUNNY   82  66  60 S14       30.18F HX  84
WAUPACA        MOSUNNY   87  70  57 S9        30.18R HX  91
WAUTOMA        MOSUNNY   84  70  62 S13       30.17F HX  88
WISC RAPIDS    MOSUNNY   83  69  62 SW9       30.19S HX  86
CAMP DOUGLAS   PTSUNNY   81  72  74 S8        30.19S HX  84
$$

WIZ011>013-019>022-031-037>040-048>050-292200-
NORTHEAST WISCONSIN

CITY           SKY/WX    TMP DP  RH WIND       PRES   REMARKS
ANTIGO         CLOUDY    80  69  69 SW10G16   30.20S HX  83
SHAWANO        PTSUNNY   85  70  60 SW8       30.17F HX  89
OCONTO         NOT AVBL
STURGEON BAY   MOSUNNY   79  67  66 S14       30.18F HX  81
GREEN BAY      MOSUNNY   82  72  71 S8        30.16F HX  87
MANITOWOC      SUNNY     79  63  57 S14       30.18F HX  80
APPLETON       MOSUNNY   82  68  61 S14       30.15F HX  85
CLINTONVILLE   MOSUNNY   82  66  57 SW8       30.16S HX  85
OSHKOSH        MOSUNNY   84  70  62 SW8       30.17F HX  88
$$

WIZ032>034-041-042-053>061-292200-
SOUTHWEST WISCONSIN

CITY           SKY/WX    TMP DP  RH WIND       PRES   REMARKS
LA CROSSE      CLOUDY    84  71  65 S9        30.16S HX  89
SPARTA         CLOUDY    80  70  70 SW5       30.19S HX  83
VIROQUA        CLOUDY    78  70  76 S3        30.20F HX  80
BOSCOBEL       CLOUDY    82  72  71 S3        30.17F HX  87
PRAIRIE DU CHI CLOUDY    79  71  75 S5        30.17F HX  82
PLATTEVILLE    CLOUDY    79  75  85 CALM      30.20F HX  83
$$

WIZ056-057-062-063-064-067-068-292200-
SOUTH CENTRAL WISCONSIN

CITY           SKY/WX    TMP DP  RH WIND       PRES   REMARKS
REEDSBURG      NOT AVBL
BARABOO/DELLS  CLOUDY    80  68  67 SW5       30.19F HX  83
LONE ROCK      CLOUDY    81  71  71 SE6       30.18F HX  85
MINERAL POINT  CLOUDY    81  73  78 SE3       30.20F HX  85
MADISON        CLOUDY    81  69  67 S8        30.18F HX  84
MIDDLETON      CLOUDY    82  70  66 SE6       30.19F HX  85
WATERTOWN      CLOUDY    81  72  73 S5        30.18F HX  85
MONROE         MOSUNNY   81  70  69 E3        30.19F HX  84
JANESVILLE     MOSUNNY   84  70  61 E5        30.18F HX  88
$$

WIZ051-052-058>065-066-070>072-292200-
SOUTHEAST WISCONSIN

CITY           SKY/WX    TMP DP  RH WIND       PRES   REMARKS
MILWAUKEE      CLOUDY    79  68  69 E8        30.20F HX  81
WAUKESHA       PTSUNNY   79  66  65 E8        30.21  HX  81
MILWAUKEE/TIMM SUNNY     81  57  44 E6        30.21  HX  81
RACINE         CLOUDY    78  70  76 E6        30.22F HX  80
BURLINGTON     CLOUDY    80  68  67 SE5       30.19F HX  82
KENOSHA        CLOUDY    81  70  69 E8        30.20F HX  84
FOND DU LAC    MOSUNNY   83  69  62 SW6       30.18F HX  86
SHEBOYGAN      CLOUDY    80  66  62 S10       30.20F HX  82
WEST BEND      PTSUNNY   79  63  57 SE6       30.20F HX  80
JUNEAU         CLOUDY    81  69  68 S5        30.20F HX  84
$$

LSZ147-162-292200-
LAKE SUPERIOR

STATION/POSITION TIME  TEMP    WIND        PRES    WAVE
                       AIR SEA DIR/SP/G            HT/PER
                 (UTC) (F)     (DEG/KT/KT) (MB)    (FT/S)
W MID LAKE BUOY  2050   70 68  210/  8/ 10 1019.1F   1/ 3
DEVILS ISLAND    2100   74     210/  8/ 10 1019.3F
PORT WING        1900   73     330/  2/  3 1020.3S
SAXON HARBOR     1940   76      60/  7/  7 1020.0F
$$

LMZ867-665-643>646-292200-
LAKE MICHIGAN

STATION/POSITION TIME  TEMP    WIND        PRES    WAVE
                       AIR SEA DIR/SP/G            HT/PER
                 (UTC) (F)     (DEG/KT/KT) (MB)    (FT/S)
CHAMBERS ISLAND  2000   78     160/  3/  9 1021.7F
S GREEN BAY BUOY 2100   76 74  190/  4/  4 1020.8
N MID LAKE BUOY  2050   72 72  220/ 10/ 12 1021.8F   1/ 3
NORTHPORT PIER   2000   74     150/  7/ 12 1022.0F
SISTER BAY       2007   80     180/ 12/ 15   N/A
ALGOMA LAKESHORE 2045          220/  8/  9   N/A
KEWAUNEE LAKESHO 2100   69     180/ 11/ 14 1021.5F
SHEBOYGAN LAKESH 2100   71     170/ 12/ 12 1021.9F
PORT WASHINGTON  2040   73      80/  1/  3 1023.4F
ATWATER BUOY     2100   71     110/  2/  4   N/A
MILWAUKEE LAKESH 2110   71      50/  4/  4   N/A
S MID LAKE BUOY  2050   77 80   20/  2/  4 1022.2F   1
KENOSHA   LAKESH 2100   72      10/  2/  3 1022.0F
$$

TC  - TEMPERATURE IN CELSIUS
VSB - VISIBILITY IN STATUTE MILES
WCI - WIND CHILL INDEX
HX  - HEAT INDEX





USA.gov is the U.S. government's official web portal to all federal, state and local government web resources and services.